Location: Unspecified
(37.6100°N, 2.7800°W)
Time: 23:40:03
(UTC+00:00)

ISS - Visible Passes

Search period start: 15 February 2019 00:00
Search period end: 25 February 2019 00:00
Orbit: 403 x 411 km, 51.6° (Epoch: 16 February)

Date Brightness Start Highest point End Pass type
(mag) Time Alt. Az. Time Alt. Az. Time Alt. Az.
22 Feb -3.0 06:20:27 10° SW 06:23:38 53° SE 06:26:49 10° ENE visible
23 Feb -1.7 05:29:27 10° S 05:32:13 26° SE 05:35:00 10° ENE visible
24 Feb -0.9 04:40:32 13° SE 04:40:54 13° SE 04:42:31 10° E visible
24 Feb -3.6 06:13:52 10° WSW 06:17:04 53° NW 06:20:17 10° NE visible
